Time,TemperatureF,DewpointF,PressureIn,WindDirection,WindDirectionDegrees,WindSpeedMPH,WindSpeedGustMPH,Humidity,HourlyPrecipIn,Conditions,Clouds,dailyrainin,SoftwareType,DateUTC
2013-08-23 00:02:00,78.0,33.0,-100.00,SSE,152,11.0,25.0,19,0.00,,,-99.99,,2013-08-23 00:02:00,
2013-08-23 00:23:00,78.0,33.0,-100.00,SSE,152,11.0,25.0,20,0.00,,,-99.99,,2013-08-23 00:23:00,
2013-08-23 00:42:00,78.0,35.0,-100.00,SSE,165,8.0,15.0,21,0.00,,,-99.99,,2013-08-23 00:42:00,
2013-08-23 00:52:00,77.0,35.0,-100.00,SSE,165,8.0,15.0,22,0.00,,,-99.99,,2013-08-23 00:52:00,
2013-08-23 01:01:00,77.0,35.0,-100.00,SSE,165,8.0,15.0,22,0.00,,,-99.99,,2013-08-23 01:01:00,
2013-08-23 01:11:00,77.0,35.0,-100.00,SSE,164,7.0,16.0,22,0.00,,,-99.99,,2013-08-23 01:11:00,
2013-08-23 01:21:00,77.0,35.0,-100.00,SSE,164,7.0,16.0,22,0.00,,,-99.99,,2013-08-23 01:21:00,
2013-08-23 01:33:00,77.0,35.0,-100.00,SSE,164,7.0,16.0,22,0.00,,,-99.99,,2013-08-23 01:33:00,
2013-08-23 01:52:00,76.0,34.0,-100.00,SSE,148,7.0,14.0,22,0.00,,,-99.99,,2013-08-23 01:52:00,
2013-08-23 02:11:00,76.0,34.0,-100.00,SE,145,8.0,15.0,22,0.00,,,-99.99,,2013-08-23 02:11:00,
2013-08-23 02:22:00,75.0,33.0,-100.00,SE,145,8.0,15.0,22,0.00,,,-99.99,,2013-08-23 02:22:00,
2013-08-23 02:32:00,75.0,33.0,-100.00,SE,145,6.0,11.0,22,0.00,,,-99.99,,2013-08-23 02:32:00,
2013-08-23 02:33:00,74.0,33.0,-100.00,SSE,151,6.0,12.0,22,0.00,,,-99.99,,2013-08-23 02:33:00,
2013-08-23 02:52:00,75.0,34.0,-100.00,SE,145,6.0,11.0,23,0.00,,,-99.99,,2013-08-23 02:52:00,
2013-08-23 03:11:00,74.0,33.0,-100.00,SSE,151,6.0,12.0,22,0.00,,,-99.99,,2013-08-23 03:11:00,
2013-08-23 03:22:00,74.0,33.0,-100.00,SSE,151,6.0,12.0,22,0.00,,,-99.99,,2013-08-23 03:22:00,
2013-08-23 04:24:00,71.0,33.0,-100.00,SSE,161,3.0,8.0,25,0.00,,,-99.99,,2013-08-23 04:24:00,
2013-08-23 04:34:00,71.0,33.0,-100.00,SSE,161,3.0,8.0,25,0.00,,,-99.99,,2013-08-23 04:34:00,
2013-08-23 04:43:00,71.0,33.0,-100.00,SSE,161,3.0,8.0,25,0.00,,,-99.99,,2013-08-23 04:43:00,
2013-08-23 04:54:00,68.0,35.0,-100.00,East,93,4.0,7.0,29,0.00,,,-99.99,,2013-08-23 04:54:00,
2013-08-23 05:03:00,68.0,35.0,-100.00,East,97,5.0,7.0,29,0.00,,,-99.99,,2013-08-23 05:03:00,
2013-08-23 05:22:00,67.0,34.0,-100.00,East,97,3.0,4.0,29,0.00,,,-99.99,,2013-08-23 05:22:00,
2013-08-23 05:42:00,67.0,35.0,-100.00,East,97,3.0,4.0,30,0.00,,,-99.99,,2013-08-23 05:42:00,
2013-08-23 05:52:00,67.0,34.0,-100.00,East,89,5.0,8.0,29,0.00,,,-99.99,,2013-08-23 05:52:00,
2013-08-23 06:02:00,67.0,34.0,-100.00,East,89,5.0,8.0,29,0.00,,,-99.99,,2013-08-23 06:02:00,
2013-08-23 06:12:00,67.0,34.0,-100.00,East,89,5.0,8.0,29,0.00,,,-99.99,,2013-08-23 06:12:00,
2013-08-23 06:21:00,67.0,34.0,-100.00,ESE,114,5.0,7.0,29,0.00,,,-99.99,,2013-08-23 06:21:00,
2013-08-23 06:42:00,65.0,35.0,-100.00,ESE,114,5.0,7.0,32,0.00,,,-99.99,,2013-08-23 06:42:00,
2013-08-23 06:52:00,64.0,35.0,-100.00,ESE,113,5.0,7.0,34,0.00,,,-99.99,,2013-08-23 06:52:00,
2013-08-23 07:01:00,64.0,35.0,-100.00,ESE,113,5.0,7.0,34,0.00,,,-99.99,,2013-08-23 07:01:00,
2013-08-23 07:22:00,63.0,35.0,-100.00,ESE,116,4.0,5.0,35,0.00,,,-99.99,,2013-08-23 07:22:00,
2013-08-23 07:32:00,63.0,35.0,-100.00,SE,128,3.0,6.0,35,0.00,,,-99.99,,2013-08-23 07:32:00,
2013-08-23 07:52:00,61.0,38.0,-100.00,SE,143,4.0,7.0,41,0.00,,,-99.99,,2013-08-23 07:52:00,
2013-08-23 08:12:00,61.0,38.0,-100.00,SE,143,4.0,7.0,42,0.00,,,-99.99,,2013-08-23 08:12:00,
2013-08-23 08:22:00,61.0,34.0,-100.00,ESE,114,7.0,10.0,36,0.00,,,-99.99,,2013-08-23 08:22:00,
2013-08-23 08:32:00,61.0,34.0,-100.00,ESE,114,5.0,7.0,36,0.00,,,-99.99,,2013-08-23 08:32:00,
2013-08-23 08:52:00,61.0,36.0,-100.00,SSE,150,4.0,8.0,39,0.00,,,-99.99,,2013-08-23 08:52:00,
2013-08-23 09:12:00,62.0,34.0,-100.00,SSE,150,4.0,8.0,34,0.00,,,-99.99,,2013-08-23 09:12:00,
2013-08-23 09:21:00,57.0,38.0,-100.00,SSW,213,5.0,7.0,48,0.00,,,-99.99,,2013-08-23 09:21:00,
2013-08-23 09:33:00,57.0,38.0,-100.00,SSE,147,4.0,6.0,48,0.00,,,-99.99,,2013-08-23 09:33:00,
2013-08-23 09:53:00,60.0,35.0,-100.00,North,3,2.0,4.0,40,0.00,,,-99.99,,2013-08-23 09:53:00,
2013-08-23 10:13:00,54.0,36.0,-100.00,North,3,2.0,4.0,51,0.00,,,-99.99,,2013-08-23 10:13:00,
2013-08-23 10:22:00,56.0,35.0,-100.00,NNW,332,2.0,6.0,45,0.00,,,-99.99,,2013-08-23 10:22:00,
2013-08-23 10:32:00,56.0,35.0,-100.00,NNW,332,2.0,6.0,45,0.00,,,-99.99,,2013-08-23 10:32:00,
2013-08-23 10:42:00,56.0,35.0,-100.00,NNW,332,2.0,6.0,45,0.00,,,-99.99,,2013-08-23 10:42:00,
2013-08-23 10:52:00,53.0,36.0,-100.00,East,80,1.0,2.0,52,0.00,,,-99.99,,2013-08-23 10:52:00,
2013-08-23 11:02:00,53.0,36.0,-100.00,East,80,1.0,2.0,52,0.00,,,-99.99,,2013-08-23 11:02:00,
2013-08-23 11:42:00,52.0,37.0,-100.00,East,100,2.0,5.0,56,0.00,,,-99.99,,2013-08-23 11:42:00,
2013-08-23 12:22:00,51.0,37.0,-100.00,ENE,64,1.0,2.0,58,0.00,,,-99.99,,2013-08-23 12:22:00,
2013-08-23 13:42:00,49.0,36.0,-100.00,ENE,69,1.0,4.0,62,0.00,,,-99.99,,2013-08-23 13:42:00,
2013-08-23 13:52:00,48.0,35.0,-100.00,East,85,1.0,3.0,61,0.00,,,-99.99,,2013-08-23 13:52:00,
2013-08-23 14:02:00,48.0,35.0,-100.00,ENE,69,2.0,5.0,61,0.00,,,-99.99,,2013-08-23 14:02:00,
2013-08-23 14:52:00,49.0,37.0,-100.00,ESE,102,2.0,4.0,64,0.00,,,-99.99,,2013-08-23 14:52:00,
2013-08-23 15:11:00,52.0,37.0,-100.00,ESE,102,2.0,4.0,58,0.00,,,-99.99,,2013-08-23 15:11:00,
2013-08-23 15:22:00,53.0,39.0,-100.00,South,169,1.0,4.0,59,0.00,,,-99.99,,2013-08-23 15:22:00,
2013-08-23 15:33:00,53.0,39.0,-100.00,SSW,212,3.0,6.0,59,0.00,,,-99.99,,2013-08-23 15:33:00,
2013-08-23 15:54:00,54.0,40.0,-100.00,West,264,2.0,4.0,60,0.00,,,-99.99,,2013-08-23 15:54:00,
2013-08-23 16:24:00,60.0,37.0,-100.00,WSW,256,0.0,2.0,43,0.00,,,-99.99,,2013-08-23 16:24:00,
2013-08-23 16:34:00,60.0,37.0,-100.00,WNW,284,3.0,6.0,43,0.00,,,-99.99,,2013-08-23 16:34:00,
2013-08-23 16:53:00,63.0,35.0,-100.00,WSW,241,2.0,4.0,34,0.00,,,-99.99,,2013-08-23 16:53:00,
2013-08-23 17:12:00,65.0,34.0,-100.00,WSW,241,2.0,4.0,32,0.00,,,-99.99,,2013-08-23 17:12:00,
2013-08-23 17:23:00,68.0,36.0,-100.00,WNW,285,3.0,6.0,31,0.00,,,-99.99,,2013-08-23 17:23:00,
2013-08-23 17:33:00,68.0,36.0,-100.00,North,353,3.0,7.0,31,0.00,,,-99.99,,2013-08-23 17:33:00,
2013-08-23 17:53:00,69.0,34.0,-100.00,North,353,3.0,7.0,27,0.00,,,-99.99,,2013-08-23 17:53:00,
2013-08-23 18:02:00,69.0,34.0,-100.00,NNW,339,2.0,6.0,27,0.00,,,-99.99,,2013-08-23 18:02:00,
2013-08-23 18:22:00,72.0,33.0,-100.00,NNW,339,2.0,6.0,24,0.00,,,-99.99,,2013-08-23 18:22:00,
2013-08-23 18:42:00,72.0,38.0,-100.00,West,278,5.0,9.0,28,0.00,,,-99.99,,2013-08-23 18:42:00,
2013-08-23 18:52:00,77.0,35.0,-100.00,NNW,329,3.0,5.0,22,0.00,,,-99.99,,2013-08-23 18:52:00,
2013-08-23 19:01:00,77.0,35.0,-100.00,NW,315,5.0,10.0,22,0.00,,,-99.99,,2013-08-23 19:01:00,
2013-08-23 19:22:00,77.0,35.0,-100.00,NW,315,5.0,10.0,22,0.00,,,-99.99,,2013-08-23 19:22:00,
2013-08-23 19:42:00,79.0,33.0,-100.00,WSW,244,4.0,12.0,19,0.00,,,-99.99,,2013-08-23 19:42:00,
2013-08-23 19:52:00,80.0,28.0,-100.00,SW,227,6.0,12.0,14,0.00,,,-99.99,,2013-08-23 19:52:00,
2013-08-23 20:02:00,80.0,28.0,-100.00,WSW,243,7.0,13.0,14,0.00,,,-99.99,,2013-08-23 20:02:00,
2013-08-23 20:22:00,82.0,27.0,-100.00,SSW,213,9.0,16.0,14,0.00,,,-99.99,,2013-08-23 20:22:00,
2013-08-23 20:42:00,83.0,31.0,-100.00,SSW,213,9.0,16.0,15,0.00,,,-99.99,,2013-08-23 20:42:00,
2013-08-23 20:52:00,83.0,31.0,-100.00,WSW,239,7.0,13.0,15,0.00,,,-99.99,,2013-08-23 20:52:00,
2013-08-23 21:21:00,83.0,30.0,-100.00,WNW,282,10.0,17.0,15,0.00,,,-99.99,,2013-08-23 21:21:00,
2013-08-23 21:34:00,83.0,30.0,-100.00,WNW,299,6.0,14.0,15,0.00,,,-99.99,,2013-08-23 21:34:00,
2013-08-23 21:54:00,82.0,29.0,-100.00,WNW,289,8.0,16.0,15,0.00,,,-99.99,,2013-08-23 21:54:00,
2013-08-23 22:13:00,82.0,32.0,-100.00,WNW,289,8.0,16.0,17,0.00,,,-99.99,,2013-08-23 22:13:00,
2013-08-23 22:24:00,82.0,32.0,-100.00,WNW,288,9.0,17.0,16,0.00,,,-99.99,,2013-08-23 22:24:00,
2013-08-23 22:33:00,82.0,32.0,-100.00,WNW,288,7.0,14.0,16,0.00,,,-99.99,,2013-08-23 22:33:00,
2013-08-23 22:53:00,82.0,37.0,-100.00,West,278,7.0,12.0,20,0.00,,,-99.99,,2013-08-23 22:53:00,
2013-08-23 23:12:00,82.0,35.0,-100.00,West,278,7.0,12.0,19,0.00,,,-99.99,,2013-08-23 23:12:00,
2013-08-23 23:22:00,81.0,38.0,-100.00,West,265,10.0,17.0,22,0.00,,,-99.99,,2013-08-23 23:22:00,
2013-08-23 23:33:00,81.0,38.0,-100.00,West,268,10.0,17.0,22,0.00,,,-99.99,,2013-08-23 23:33:00,
2013-08-23 23:54:00,80.0,38.0,-100.00,South,188,9.0,17.0,21,0.00,,,-99.99,,2013-08-23 23:54:00,